Flag for Austria Weather past 2 weeks in Klagenfurt, Carinthia, Austria

32 °F

Passing clouds.

Feels Like: 32 °F
Forecast: 21 / 34 °F
Wind: 1 mph from North

Location: Klagenfurt-Flughafen

Current Time: Nov 27, 2015 at 9:16:26 PM

Latest Report: Nov 27, 2015 at 8:20 PM

Visibility: 5 mi

Pressure: 29.92 "Hg

Humidity: 100%

Dew point: 32 °F

Location of KlagenfurtLocation

Historic Weather in Klagenfurt — Graph


Klagenfurt temperature yesterday

Maximum temperature yesterday: 34 °F (at 12:20 PM)
Minimum temperature yesterday: 28 °F (at 5:20 AM)
Average temperature yesterday: 31 °F

Past Weeks' High & Low Weather Summary

High59 °F (Nov 18, 1:20 PM)100% (Nov 12, 9:20 PM)30.39 "Hg (Nov 12, 9:20 PM)
Low27 °F (Nov 19, 7:50 AM)59% (Nov 18, 1:20 PM)29.36 "Hg (Nov 21, 12:20 AM)
Average37 °F91%29.99 "Hg
* Reported Nov 12 7:20 PM — Nov 27 7:50 PM, Klagenfurt, Weather by CustomWeather, © 2015

Note: Actual official high and low records may vary slightly from our data, if they occured in-between our weather recording intervals... More about our weather records


Klagenfurt weather history for previous 24 hours

Time TempWeatherWind HumidityBarometerVisibility
7:50 PM
Fri, Nov 27
32 °FPassing clouds.1 mph100%29.95 "Hg5 mi
7:20 PM32 °FPartly cloudy.1 mph100%29.95 "Hg5 mi
6:50 PM32 °FPartly cloudy.1 mph93%29.95 "Hg5 mi
6:20 PM32 °FPassing clouds.1 mph93%29.95 "Hg6 mi
5:50 PM32 °FPassing clouds.2 mph93%29.95 "Hg5 mi
5:20 PM30 °FPartly cloudy.1 mph100%29.95 "Hg6 mi
4:50 PM30 °FPartly cloudy.1 mph100%29.95 "HgN/A
4:20 PM30 °FPartly cloudy.1 mph100%29.95 "Hg5 mi
3:50 PM30 °FPartly sunny.2 mph100%29.95 "Hg5 mi
3:20 PM30 °FPartly sunny.3 mph100%29.95 "Hg5 mi
2:50 PM30 °FLight freezing rain. Partly sunny.5 mph100%29.95 "Hg3 mi
2:20 PM32 °FLight freezing rain. Partly sunny.3 mph93%29.95 "Hg3 mi
1:50 PM32 °FLight freezing rain. Partly sunny.2 mph100%29.95 "Hg3 mi
1:20 PM30 °FPartly sunny.1 mph100%29.95 "Hg4 mi
12:50 PM30 °FBroken clouds.2 mph100%29.98 "Hg5 mi
12:20 PM30 °FBroken clouds.2 mph100%29.98 "Hg4 mi
11:50 AM30 °FSleet. Fog.2 mph100%29.98 "Hg3 mi
11:20 AM30 °FLight freezing rain. Fog.3 mph100%30.01 "Hg2 mi
10:50 AM30 °FSleet. Partly sunny.2 mph93%30.01 "Hg2 mi
10:20 AM28 °FLow clouds.1 mph100%30.04 "Hg1 mi
9:50 AM28 °FIce fog.2 mph100%30.04 "Hg1 mi
9:20 AM28 °FIce fog.2 mph100%30.04 "Hg1 mi
8:50 AM28 °FIce fog.2 mph100%30.04 "Hg1 mi
8:20 AM27 °FIce fog.2 mph100%30.04 "Hg1 mi
7:50 AM28 °FIce fog.2 mph100%30.04 "Hg1 mi
7:20 AM28 °FIce fog.2 mph100%30.04 "Hg1 mi
6:50 AM28 °FIce fog.2 mph100%30.01 "Hg1 mi
6:20 AM28 °FIce fog.3 mph100%30.01 "Hg1 mi
5:50 AM28 °FIce fog.2 mph100%30.01 "Hg0 mi
4:50 AM28 °FIce fog.3 mph100%30.01 "Hg0 mi
4:20 AM28 °FIce fog.5 mph100%30.01 "Hg1 mi
3:50 AM28 °FIce fog.5 mph100%30.01 "Hg1 mi
3:20 AM28 °FIce fog.5 mph100%30.01 "Hg1 mi
2:50 AM28 °FIce fog.3 mph100%30.01 "Hg0 mi
2:20 AM28 °FIce fog.3 mph100%30.01 "Hg0 mi
1:50 AM28 °FIce fog.3 mph100%30.01 "Hg0 mi
1:20 AM28 °FIce fog.2 mph100%30.01 "Hg0 mi
12:50 AM28 °FIce fog.1 mph100%30.01 "Hg0 mi
12:20 AM28 °FIce fog.3 mph100%30.01 "Hg0 mi
11:50 PM
Thu, Nov 26
28 °FIce fog.5 mph100%30.01 "Hg1 mi
10:50 PM28 °FChilly.5 mph100%29.98 "Hg1 mi
10:20 PM28 °FChilly.5 mph100%29.98 "Hg2 mi
9:50 PM28 °FIce fog.5 mph100%29.98 "Hg1 mi
9:20 PM28 °FPassing clouds.5 mph100%29.98 "Hg1 mi
Weather by CustomWeather, © 2015

See weather overviewHow to use our weather pages